This is the latest recevied weather packets stored in our database for station/object W9KHP-1. If no packets are shown the sender has not sent any weather packets the latest 10 day(s).
| Time | Temp. | Humidity | Pressure | Rain* | Wind** | Luminosity | Snow |
|---|---|---|---|---|---|---|---|
| 1777829564 | 17.78° C | 47% | 1021.5 hPa | 0 mm | - | 742 W/m² | - |
| 1777829262 | 17.22° C | 49% | 1021.5 hPa | 0 mm | - | 735 W/m² | - |
| 1777828958 | 16.67° C | 46% | 1021.6 hPa | 0 mm | - | 729 W/m² | - |
| 1777828655 | 16.67° C | 48% | 1021.6 hPa | 0 mm | - | 731 W/m² | - |
| 1777828352 | 17.78° C | 47% | 1021.7 hPa | 0 mm | - | 725 W/m² | - |
| 1777828049 | 17.78° C | 45% | 1021.8 hPa | 0 mm | - | 723 W/m² | - |
| 1777827746 | 18.33° C | 46% | 1021.9 hPa | 0 mm | - | 719 W/m² | - |
| 1777827443 | 17.22° C | 50% | 1022.1 hPa | 0 mm | - | 715 W/m² | - |
| 1777827140 | 17.22° C | 50% | 1022 hPa | 0 mm | - | 712 W/m² | - |
| 1777826836 | 16.67° C | 51% | 1022.1 hPa | 0 mm | - | 706 W/m² | - |
| 1777826534 | 16.67° C | 48% | 1022 hPa | 0 mm | - | 699 W/m² | - |
| 1777826230 | 16.67° C | 50% | 1022.1 hPa | 0 mm | - | 694 W/m² | - |
| 1777825928 | 15.56° C | 51% | 1022.3 hPa | 0 mm | - | 689 W/m² | - |
| 1777825624 | 16.11° C | 48% | 1022.4 hPa | 0 mm | - | 681 W/m² | - |
| 1777825323 | 16.11° C | 52% | 1022.3 hPa | 0 mm | - | 675 W/m² | - |
| 1777825019 | 15.56° C | 49% | 1022.4 hPa | 0 mm | - | 670 W/m² | - |
| 1777824715 | 16.67° C | 53% | 1022.4 hPa | 0 mm | - | 662 W/m² | - |
| 1777824412 | 15.56° C | 51% | 1022.5 hPa | 0 mm | - | 655 W/m² | - |
| 1777824108 | 15.56° C | 53% | 1022.5 hPa | 0 mm | - | 646 W/m² | - |
| 1777823804 | 15.56° C | 51% | 1022.5 hPa | 0 mm | - | 640 W/m² | - |
| 1777823502 | 16.11° C | 51% | 1022.5 hPa | 0 mm | - | 633 W/m² | - |
| 1777823199 | 16.11° C | 52% | 1022.7 hPa | 0 mm | - | 626 W/m² | - |
| 1777822897 | 15.56° C | 53% | 1022.8 hPa | 0 mm | - | 617 W/m² | - |
| 1777822594 | 15.56° C | 54% | 1022.6 hPa | 0 mm | - | 609 W/m² | - |
| 1777822292 | 15.56° C | 51% | 1022.9 hPa | 0 mm | - | 600 W/m² | - |
* Rain latest hour (hover to see other rain measurements)
** Current wind speed in m/s (hover to see current wind gust speed)